User: anonymous   Login
Location: Unspecified
(0.0000°N, 0.0000°E)
Time: 01:41:44
(UTC+00:00)
Language:

OFEQ 10 - Orbit

View from above orbital plane
View from above orbital plane
View from above satellite
View from above satellite

Ground track
Ground track

The orbit data is extracted from the following two-line orbital elements,

1 39650U 14019A   17115.08103024 0.00000000  00000-0  00000-0 0    04
2 39650 140.9209   9.9423 0001996  18.2543 341.7450 15.16904130    09
Epoch (UTC): 25 April 2017 01:56:41
Eccentricity: 0.0001996
inclination: 140.9209°
perigee height: 514 km
apogee height: 516 km
right ascension of ascending node: 9.9423°
argument of perigee: 18.2543°
revolutions per day: 15.16904130
mean anomaly at epoch: 341.7450°
orbit number at epoch: 0

The dashed part of the orbit path shows where the satellite is in the earth's shadow,  

DLR